BKP6HF VTBS-VTSM

Flight info

Callsign BKP6HF
Flight time 0h 47m
Altitude 33000
Route KASNI1E KASNI M757 MABKO W33 UPNEP
Aircraft A319/M-SDE3FGHIRWY/LB1

Departure

Time 2026-04-16 22:39
Airport Suvarnabhumi Airport (VTBS)

Arrival

Time 2026-04-16 23:27
Airport Samui International Airport (VTSM)
Time Latitude Longitude Altitude Speed Heading
2026-04-16 22:03 13.69278 100.75538 13 ft 0 kts 284°
2026-04-16 22:24 13.69277 100.75544 13 ft 4 kts 284°
2026-04-16 22:24 13.69270 100.75569 13 ft 4 kts 285°
2026-04-16 22:24 13.69263 100.75595 15 ft 4 kts 282°
2026-04-16 22:25 13.69260 100.75620 13 ft 4 kts 262°
2026-04-16 22:25 13.69267 100.75638 15 ft 2 kts 195°
2026-04-16 22:25 13.69287 100.75643 15 ft 1 kts 194°
2026-04-16 22:29 13.69278 100.75641 14 ft 4 kts 194°
2026-04-16 22:29 13.69239 100.75630 14 ft 8 kts 194°
2026-04-16 22:29 13.69171 100.75637 13 ft 13 kts 137°
2026-04-16 22:29 13.69138 100.75735 13 ft 16 kts 107°
2026-04-16 22:30 13.69051 100.75781 14 ft 19 kts 192°
2026-04-16 22:30 13.68905 100.75743 13 ft 25 kts 194°
2026-04-16 22:30 13.68740 100.75699 13 ft 21 kts 194°
2026-04-16 22:30 13.68600 100.75662 13 ft 23 kts 195°
2026-04-16 22:31 13.68491 100.75628 13 ft 12 kts 214°
2026-04-16 22:31 13.68483 100.75542 13 ft 15 kts 284°
2026-04-16 22:31 13.68514 100.75420 13 ft 20 kts 284°
2026-04-16 22:31 13.68553 100.75264 13 ft 25 kts 284°
2026-04-16 22:32 13.68592 100.75111 14 ft 18 kts 284°
2026-04-16 22:32 13.68627 100.74974 13 ft 23 kts 284°
2026-04-16 22:32 13.68654 100.74863 13 ft 1 kts 284°
2026-04-16 22:32 13.68660 100.74841 13 ft 5 kts 284°
2026-04-16 22:33 13.68672 100.74791 13 ft 9 kts 285°
2026-04-16 22:33 13.68692 100.74713 15 ft 14 kts 284°
2026-04-16 22:33 13.68719 100.74603 15 ft 18 kts 285°
2026-04-16 22:33 13.68755 100.74462 13 ft 23 kts 284°
2026-04-16 22:34 13.68793 100.74310 15 ft 19 kts 284°
2026-04-16 22:34 13.68825 100.74221 14 ft 12 kts 319°
2026-04-16 22:34 13.68920 100.74230 13 ft 16 kts 15°
2026-04-16 22:34 13.69042 100.74262 15 ft 20 kts 14°
2026-04-16 22:35 13.69194 100.74303 13 ft 24 kts 14°
2026-04-16 22:35 13.69372 100.74349 13 ft 29 kts 14°
2026-04-16 22:35 13.69584 100.74405 13 ft 34 kts 14°
2026-04-16 22:35 13.69781 100.74456 13 ft 14 kts 14°
2026-04-16 22:36 13.69876 100.74439 13 ft 17 kts 301°
2026-04-16 22:36 13.69912 100.74306 13 ft 22 kts 284°
2026-04-16 22:36 13.69954 100.74139 13 ft 27 kts 285°
2026-04-16 22:36 13.69991 100.73995 14 ft 9 kts 284°
2026-04-16 22:37 13.69997 100.73970 14 ft 0 kts 284°
2026-04-16 22:37 13.69998 100.73965 14 ft 3 kts 284°
2026-04-16 22:37 13.70006 100.73930 14 ft 9 kts 284°
2026-04-16 22:38 13.69976 100.73843 14 ft 18 kts 218°
2026-04-16 22:38 13.69926 100.73822 15 ft 0 kts 195°
2026-04-16 22:38 13.69756 100.73777 13 ft 58 kts 194°
2026-04-16 22:38 13.69166 100.73623 14 ft 115 kts 194°
2026-04-16 22:39 13.68226 100.73376 15 ft 162 kts 194°
2026-04-16 22:39 13.67110 100.73081 530 ft 163 kts 194°
2026-04-16 22:39 13.66008 100.72786 1121 ft 164 kts 193°
2026-04-16 22:39 13.64906 100.72519 1749 ft 163 kts 192°
2026-04-16 22:40 13.63738 100.72255 2038 ft 180 kts 193°
2026-04-16 22:40 13.62439 100.71955 2258 ft 203 kts 193°
2026-04-16 22:40 13.60963 100.71615 2506 ft 230 kts 193°
2026-04-16 22:40 13.59323 100.71235 2954 ft 250 kts 193°
2026-04-16 22:41 13.57608 100.70835 3758 ft 256 kts 193°
2026-04-16 22:41 13.55871 100.70428 4584 ft 262 kts 192°
2026-04-16 22:41 13.54066 100.70004 5357 ft 268 kts 192°
2026-04-16 22:41 13.52226 100.69596 6200 ft 272 kts 187°
2026-04-16 22:42 13.50346 100.69434 6968 ft 276 kts 183°
2026-04-16 22:42 13.48403 100.69297 7687 ft 283 kts 182°
2026-04-16 22:42 13.46420 100.69165 8458 ft 288 kts 182°
2026-04-16 22:42 13.44394 100.69031 9211 ft 293 kts 183°
2026-04-16 22:43 13.42344 100.68896 9949 ft 298 kts 183°
2026-04-16 22:43 13.40213 100.68755 10278 ft 318 kts 183°
2026-04-16 22:43 13.37959 100.68602 10605 ft 334 kts 183°
2026-04-16 22:43 13.35620 100.68439 11199 ft 339 kts 183°
2026-04-16 22:44 13.33255 100.68273 11860 ft 342 kts 183°
2026-04-16 22:44 13.30869 100.68106 12534 ft 344 kts 183°
2026-04-16 22:44 13.28472 100.67940 13197 ft 347 kts 182°
2026-04-16 22:44 13.26045 100.67842 13788 ft 351 kts 180°
2026-04-16 22:45 13.23582 100.67817 14310 ft 355 kts 179°
2026-04-16 22:45 13.21121 100.67830 14847 ft 358 kts 179°
2026-04-16 22:45 13.18607 100.67854 15389 ft 362 kts 178°
2026-04-16 22:45 13.16078 100.67869 15923 ft 365 kts 179°
2026-04-16 22:46 13.13522 100.67868 16458 ft 368 kts 179°
2026-04-16 22:46 13.10946 100.67855 16986 ft 372 kts 179°
2026-04-16 22:46 13.08346 100.67839 17508 ft 376 kts 180°
2026-04-16 22:46 13.05721 100.67805 18041 ft 379 kts 180°
2026-04-16 22:47 13.03097 100.67742 18494 ft 382 kts 181°
2026-04-16 22:47 13.00430 100.67664 18965 ft 385 kts 181°
2026-04-16 22:47 12.97741 100.67580 19433 ft 387 kts 181°
2026-04-16 22:47 12.95034 100.67495 19906 ft 390 kts 181°
2026-04-16 22:48 12.92315 100.67413 20373 ft 392 kts 181°
2026-04-16 22:48 12.89569 100.67337 20835 ft 395 kts 181°
2026-04-16 22:48 12.86815 100.67265 21278 ft 397 kts 181°
2026-04-16 22:48 12.84035 100.67198 21718 ft 400 kts 181°
2026-04-16 22:49 12.81239 100.67129 22150 ft 403 kts 181°
2026-04-16 22:49 12.78460 100.67059 22582 ft 405 kts 182°
2026-04-16 22:49 12.75626 100.66985 23022 ft 408 kts 182°
2026-04-16 22:49 12.72774 100.66909 23447 ft 410 kts 181°
2026-04-16 22:50 12.69909 100.66832 23801 ft 413 kts 182°
2026-04-16 22:50 12.67031 100.66754 24156 ft 414 kts 182°
2026-04-16 22:50 12.64139 100.66676 24505 ft 416 kts 182°
2026-04-16 22:50 12.61227 100.66602 24857 ft 418 kts 182°
2026-04-16 22:51 12.58314 100.66529 25191 ft 420 kts 182°
2026-04-16 22:51 12.55384 100.66456 25535 ft 422 kts 182°
2026-04-16 22:51 12.52440 100.66380 25881 ft 423 kts 182°
2026-04-16 22:51 12.49482 100.66303 26214 ft 425 kts 183°
2026-04-16 22:52 12.46557 100.66225 26544 ft 427 kts 182°
2026-04-16 22:52 12.43579 100.66144 26843 ft 429 kts 183°
2026-04-16 22:52 12.40586 100.66065 27159 ft 431 kts 183°
2026-04-16 22:52 12.37574 100.65987 27465 ft 433 kts 182°
2026-04-16 22:53 12.34551 100.65909 27766 ft 436 kts 183°
2026-04-16 22:53 12.31503 100.65830 28080 ft 437 kts 183°
2026-04-16 22:53 12.28453 100.65751 28397 ft 439 kts 183°
2026-04-16 22:53 12.25379 100.65671 28690 ft 441 kts 183°
2026-04-16 22:54 12.22302 100.65591 28992 ft 443 kts 183°
2026-04-16 22:54 12.20258 100.65538 29187 ft 444 kts 183°
2026-04-16 22:54 12.16141 100.65430 29532 ft 448 kts 183°
2026-04-16 22:54 12.13010 100.65347 29808 ft 451 kts 183°
2026-04-16 22:55 12.09860 100.65263 30061 ft 453 kts 183°
2026-04-16 22:55 12.07770 100.65208 30216 ft 454 kts 183°
2026-04-16 22:55 12.04603 100.65124 30460 ft 456 kts 183°
2026-04-16 22:55 12.01421 100.65043 30694 ft 458 kts 183°
2026-04-16 22:56 11.98221 100.64964 30934 ft 459 kts 183°
2026-04-16 22:56 11.95003 100.64885 31165 ft 461 kts 183°
2026-04-16 22:56 11.91831 100.64807 31393 ft 463 kts 183°
2026-04-16 22:56 11.88606 100.64728 31670 ft 463 kts 183°
2026-04-16 22:57 11.85381 100.64648 32012 ft 462 kts 183°
2026-04-16 22:57 11.82170 100.64565 32335 ft 461 kts 183°
2026-04-16 22:57 11.78961 100.64483 32659 ft 461 kts 183°
2026-04-16 22:57 11.75737 100.64401 32839 ft 461 kts 183°
2026-04-16 22:58 11.72607 100.64325 32871 ft 449 kts 183°
2026-04-16 22:58 11.69517 100.64250 32874 ft 440 kts 183°
2026-04-16 22:58 11.63433 100.64089 32874 ft 435 kts 183°
2026-04-16 22:59 11.57378 100.63933 32874 ft 434 kts 183°
2026-04-16 22:59 11.51338 100.63778 32873 ft 434 kts 183°
2026-04-16 23:00 11.45286 100.63630 32878 ft 434 kts 183°
2026-04-16 23:00 11.39273 100.63484 32875 ft 434 kts 183°
2026-04-16 23:01 11.33226 100.63329 32873 ft 434 kts 183°
2026-04-16 23:01 11.30207 100.63253 32703 ft 431 kts 183°
2026-04-16 23:01 11.27221 100.63181 32457 ft 428 kts 183°
2026-04-16 23:02 11.24248 100.63107 32211 ft 426 kts 183°
2026-04-16 23:02 11.21294 100.63033 31969 ft 424 kts 183°
2026-04-16 23:02 11.18350 100.62958 31732 ft 422 kts 183°
2026-04-16 23:02 11.15456 100.62884 31496 ft 420 kts 183°
2026-04-16 23:03 11.12539 100.62810 31261 ft 419 kts 183°
2026-04-16 23:03 11.09620 100.62735 31022 ft 418 kts 183°
2026-04-16 23:03 11.06716 100.62659 30790 ft 416 kts 183°
2026-04-16 23:03 11.03819 100.62582 30556 ft 415 kts 183°
2026-04-16 23:04 11.00943 100.62506 30329 ft 413 kts 183°
2026-04-16 23:04 10.98069 100.62434 30111 ft 412 kts 183°
2026-04-16 23:04 10.95209 100.62364 29872 ft 410 kts 183°
2026-04-16 23:04 10.92358 100.62295 29606 ft 409 kts 183°
2026-04-16 23:05 10.89518 100.62224 29347 ft 407 kts 183°
2026-04-16 23:05 10.86694 100.62152 29084 ft 405 kts 183°
2026-04-16 23:05 10.83909 100.62079 28825 ft 403 kts 183°
2026-04-16 23:05 10.81100 100.62007 28567 ft 401 kts 183°
2026-04-16 23:06 10.78303 100.61937 28310 ft 399 kts 183°
2026-04-16 23:06 10.75562 100.61872 28062 ft 398 kts 182°
2026-04-16 23:06 10.72798 100.61806 27809 ft 397 kts 183°
2026-04-16 23:06 10.70048 100.61738 27552 ft 392 kts 182°
2026-04-16 23:07 10.67329 100.61669 27161 ft 390 kts 182°
2026-04-16 23:07 10.64625 100.61598 26782 ft 388 kts 182°
2026-04-16 23:07 10.61926 100.61528 26386 ft 386 kts 182°
2026-04-16 23:07 10.59249 100.61463 25995 ft 384 kts 182°
2026-04-16 23:08 10.56585 100.61399 25585 ft 382 kts 182°
2026-04-16 23:08 10.53967 100.61336 25181 ft 381 kts 183°
2026-04-16 23:08 10.51312 100.61269 24767 ft 379 kts 183°
2026-04-16 23:08 10.48665 100.61199 24331 ft 378 kts 182°
2026-04-16 23:09 10.46034 100.61131 23900 ft 378 kts 182°
2026-04-16 23:09 10.43405 100.61066 23461 ft 377 kts 182°
2026-04-16 23:09 10.40806 100.61005 22973 ft 375 kts 182°
2026-04-16 23:09 10.38199 100.60943 22528 ft 372 kts 182°
2026-04-16 23:10 10.35613 100.60880 22099 ft 368 kts 182°
2026-04-16 23:10 10.33093 100.60818 21679 ft 365 kts 182°
2026-04-16 23:10 10.30554 100.60756 21252 ft 362 kts 181°
2026-04-16 23:10 10.28046 100.60695 20830 ft 359 kts 181°
2026-04-16 23:11 10.25554 100.60633 20408 ft 357 kts 182°
2026-04-16 23:11 10.23070 100.60570 19985 ft 355 kts 181°
2026-04-16 23:11 10.20631 100.60508 19574 ft 353 kts 181°
2026-04-16 23:11 10.18178 100.60448 19159 ft 351 kts 181°
2026-04-16 23:12 10.15737 100.60389 18746 ft 349 kts 181°
2026-04-16 23:12 10.13306 100.60333 18335 ft 348 kts 181°
2026-04-16 23:12 10.10891 100.60276 17889 ft 347 kts 181°
2026-04-16 23:12 10.08476 100.60218 17472 ft 344 kts 181°
2026-04-16 23:13 10.06126 100.60160 17069 ft 341 kts 181°
2026-04-16 23:13 10.03752 100.60099 16646 ft 339 kts 181°
2026-04-16 23:13 10.01398 100.60039 16235 ft 337 kts 180°
2026-04-16 23:13 9.99063 100.59980 15854 ft 334 kts 180°
2026-04-16 23:14 9.96737 100.59924 15462 ft 332 kts 180°
2026-04-16 23:14 9.94426 100.59869 15076 ft 331 kts 180°
2026-04-16 23:14 9.92155 100.59816 14697 ft 329 kts 179°
2026-04-16 23:14 9.89867 100.59765 14307 ft 328 kts 180°
2026-04-16 23:15 9.85303 100.59655 13523 ft 326 kts 180°
2026-04-16 23:15 9.83041 100.59584 13119 ft 324 kts 184°
2026-04-16 23:15 9.80849 100.59091 12730 ft 323 kts 199°
2026-04-16 23:16 9.78899 100.58015 12342 ft 323 kts 217°
2026-04-16 23:16 9.77257 100.56461 11953 ft 322 kts 225°
2026-04-16 23:16 9.75695 100.54836 11558 ft 320 kts 225°
2026-04-16 23:16 9.74133 100.53217 11167 ft 319 kts 225°
2026-04-16 23:17 9.72594 100.51596 10777 ft 318 kts 229°
2026-04-16 23:17 9.71436 100.49694 10397 ft 317 kts 247°
2026-04-16 23:17 9.70899 100.47561 10025 ft 316 kts 265°
2026-04-16 23:17 9.71010 100.45350 9769 ft 310 kts 280°
2026-04-16 23:18 9.71368 100.43191 9346 ft 310 kts 280°
2026-04-16 23:18 9.71713 100.41064 8912 ft 304 kts 279°
2026-04-16 23:18 9.72049 100.38962 8527 ft 299 kts 279°
2026-04-16 23:18 9.72375 100.36921 8174 ft 294 kts 279°
2026-04-16 23:19 9.72702 100.34878 7832 ft 293 kts 279°
2026-04-16 23:19 9.73029 100.32831 7488 ft 292 kts 279°
2026-04-16 23:19 9.73354 100.30796 7149 ft 292 kts 279°
2026-04-16 23:19 9.73504 100.28747 6727 ft 294 kts 270°
2026-04-16 23:20 9.73507 100.26655 6319 ft 294 kts 270°
2026-04-16 23:20 9.73503 100.24590 5808 ft 291 kts 270°
2026-04-16 23:20 9.73498 100.22565 5251 ft 289 kts 269°
2026-04-16 23:20 9.73494 100.20522 4697 ft 287 kts 269°
2026-04-16 23:21 9.73494 100.18514 4208 ft 282 kts 269°
2026-04-16 23:21 9.73496 100.16565 3964 ft 268 kts 269°
2026-04-16 23:21 9.73499 100.14735 3836 ft 251 kts 269°
2026-04-16 23:21 9.73497 100.13027 3721 ft 233 kts 267°
2026-04-16 23:22 9.73167 100.11499 3641 ft 213 kts 243°
2026-04-16 23:22 9.72359 100.10326 3458 ft 202 kts 221°
2026-04-16 23:22 9.71225 100.09569 3216 ft 190 kts 202°
2026-04-16 23:22 9.70043 100.09035 2946 ft 180 kts 202°
2026-04-16 23:23 9.68924 100.08521 2714 ft 173 kts 203°
2026-04-16 23:23 9.67863 100.08033 2497 ft 161 kts 203°
2026-04-16 23:23 9.66877 100.07579 2313 ft 147 kts 203°
2026-04-16 23:23 9.65988 100.07174 2097 ft 140 kts 203°
2026-04-16 23:24 9.65101 100.06778 1915 ft 141 kts 202°
2026-04-16 23:24 9.64200 100.06368 1769 ft 142 kts 203°
2026-04-16 23:24 9.63313 100.05961 1577 ft 137 kts 203°
2026-04-16 23:24 9.62425 100.05625 1379 ft 136 kts 191°
2026-04-16 23:25 9.61490 100.05604 1235 ft 135 kts 173°
2026-04-16 23:25 9.60564 100.05701 1054 ft 134 kts 174°
2026-04-16 23:25 9.59633 100.05785 865 ft 133 kts 174°
2026-04-16 23:25 9.58711 100.05871 691 ft 133 kts 175°
2026-04-16 23:26 9.57786 100.05958 507 ft 134 kts 174°
2026-04-16 23:26 9.56862 100.06046 338 ft 134 kts 174°
2026-04-16 23:26 9.55947 100.06135 156 ft 133 kts 174°
2026-04-16 23:26 9.55058 100.06222 52 ft 116 kts 174°
2026-04-16 23:27 9.54485 100.06277 53 ft 40 kts 174°
2026-04-16 23:27 9.54314 100.06294 53 ft 24 kts 174°
2026-04-16 23:27 9.54154 100.06308 53 ft 22 kts 175°
2026-04-16 23:27 9.53996 100.06322 53 ft 23 kts 174°
2026-04-16 23:28 9.53868 100.06313 53 ft 13 kts 161°
2026-04-16 23:28 9.53901 100.06338 49 ft 10 kts 347°
2026-04-16 23:28 9.53977 100.06323 50 ft 12 kts 352°
2026-04-16 23:28 9.54070 100.06313 53 ft 15 kts 355°
2026-04-16 23:29 9.54179 100.06303 53 ft 17 kts 355°
2026-04-16 23:29 9.54302 100.06294 53 ft 19 kts 354°
2026-04-16 23:29 9.54439 100.06280 50 ft 21 kts 354°
2026-04-16 23:29 9.54591 100.06266 53 ft 23 kts 354°
2026-04-16 23:30 9.54758 100.06249 53 ft 25 kts 354°
2026-04-16 23:30 9.54912 100.06234 53 ft 15 kts 355°
2026-04-16 23:30 9.54997 100.06235 53 ft 10 kts 26°
2026-04-16 23:30 9.55012 100.06278 53 ft 7 kts 83°
2026-04-16 23:31 9.55050 100.06308 53 ft 8 kts
2026-04-16 23:31 9.55079 100.06322 53 ft 3 kts 66°
2026-04-16 23:31 9.55081 100.06339 53 ft 1 kts 82°
2026-04-16 23:31 9.55082 100.06344 53 ft 0 kts 83°